This demonstration page uses our WeatherBlox Daily Observations layout. Learn more.

Left ArrowRight Arrow

36.19886, -115.1175

Hourly Observations for March 16, 2017

Temp ( °F °C ) Dew Point ( °F °C ) Humidity (%) Winds ( mph kmh ) Pressure ( in mb ) Visibility ( mi km ) Precip ( " mm )
12:53 am 00:53 Clear 72 22.2 33 0.6 24 24 SW 10 17 30.01 1016 10 16 N/A
1:53 am 01:53 Clear 67 19.4 34 1.1 30 30 N N/A 30.03 1017 10 16 N/A
2:53 am 02:53 Clear 62 16.7 34 1.1 35 35 N 5 7 30.03 1017 10 16 N/A
3:53 am 03:53 Clear 62 16.7 34 1.1 35 35 NNW 5 7 30.03 1017 10 16 N/A
4:53 am 04:53 Clear 60 15.6 34 1.1 38 38 NW 5 7 30.04 1017 10 16 N/A
5:53 am 05:53 Clear 58 14.4 35 1.7 42 42 NNW 6 9 30.05 1018 10 16 N/A
6:53 am 06:53 Sunny 59 15 33 0.6 38 38 NNW 10 17 30.07 1018 10 16 N/A
7:53 am 07:53 Sunny 63 17.2 34 1.1 34 34 N 7 11 30.10 1019 10 16 N/A
8:53 am 08:53 Sunny 69 20.6 35 1.7 29 29 N 5 7 30.11 1020 10 16 N/A
9:53 am 09:53 Sunny 72 22.2 35 1.7 26 26 ENE 3 6 30.12 1020 10 16 N/A
10:53 am 10:53 Sunny 75 23.9 35 1.7 23 23 ENE 6 9 30.12 1020 10 16 N/A
11:53 am 11:53 Sunny 76 24.4 35 1.7 23 23 E 6 9 30.11 1020 10 16 N/A
12:53 pm 12:53 Sunny 80 26.7 33 0.6 18 18 ENE 6 9 30.09 1019 10 16 N/A
1:53 pm 13:53 Sunny 81 27.2 29 -1.7 15 15 ESE 5 7 30.06 1018 10 16 N/A
2:53 pm 14:53 Sunny 83 28.3 29 -1.7 14 14 SE 8 13 30.04 1017 10 16 N/A
3:53 pm 15:53 Sunny 84 28.9 29 -1.7 13 13 VRB 5 7 30.01 1016 10 16 N/A
4:53 pm 16:53 Sunny 84 28.9 27 -2.8 12 12 N N/A 29.99 1016 10 16 N/A
5:53 pm 17:53 Sunny 83 28.3 26 -3.3 12 12 ESE 8 13 29.99 1016 10 16 N/A
6:53 pm 18:53 Clear 79 26.1 27 -2.8 15 15 E 8 13 30.00 1016 10 16 N/A
7:53 pm 19:53 Clear 76 24.4 32 undefined 20 20 E 6 9 30.01 1016 10 16 N/A
8:53 pm 20:53 Clear 74 23.3 34 1.1 23 23 N 5 7 30.03 1017 10 16 N/A
9:53 pm 21:53 Clear 72 22.2 34 1.1 25 25 N 6 9 30.04 1017 10 16 N/A
10:53 pm 22:53 Clear 68 20 36 2.2 31 31 N 6 9 30.05 1018 10 16 N/A
11:53 pm 23:53 Clear 66 18.9 37 2.8 34 34 N 5 7 30.05 1018 10 16 N/A

Powered by AerisWeather